Regional Weather Roundup
Issued by NWS

Home | Current Version | Previous Version | Text Only | Print | Product List | Glossary Off
Versions: 1 2 3 4 5 6 7 8 9 10 11 12 13 14 15 16 17 18 19 20 21 22 23 24 25 26 27 28 29 30 31 32 33 34 35 36 37 38 39 40 41 42

000
ASUS43 KMKX 240300
RWRWI

WISCONSIN REGIONAL WEATHER ROUNDUP
NATIONAL WEATHER SERVICE MILWAUKEE/SULLIVAN WI
1000 PM CDT TUE AUG 23 2016

NOTE: "FAIR" INDICATES FEW OR NO CLOUDS BELOW 12,000 FEET WITH NO
SIGNIFICANT WEATHER AND/OR OBSTRUCTIONS TO VISIBILITY.

WIZ001-002-006>008-014>016-023>028-240400-
NORTHWEST WISCONSIN

CITY           SKY/WX    TMP DP  RH WIND       PRES   REMARKS
SUPERIOR ARPT  CLOUDY    73  67  81 S6        29.86S
ASHLAND        CLOUDY    73  64  73 S10G20    29.91S
HAYWARD        CLOUDY    72  64  76 SE9       29.93S
SIREN          CLOUDY    73  63  71 SE8       29.88F
CUMBERLAND     MOCLDY    70  63  78 SE8       29.92S
RICE LAKE      MOCLDY    72  64  77 SE10      29.93F
CHETEK         NOT AVBL
LADYSMITH      CLOUDY    71  64  78 SE6       29.98R
EAU CLAIRE     TSTM      72  66  83 SE8       29.94R
MENOMONIE      RAIN      70  67  92 CALM      29.95R
NEW RICHMOND   LGT RAIN  70  64  80 SE8       29.91R
OSCEOLA        CLOUDY    73  64  73 SE15      29.90S
$$

WIZ003>005-009-010-017-018-240400-
NORTH CENTRAL WISCONSIN

CITY           SKY/WX    TMP DP  RH WIND       PRES   REMARKS
MANITOWISH WTR NOT AVBL
ARBOR VITAE    PTCLDY    72  65  79 S6        30.00F
WOODRUFF       PTCLDY    72  65  79 S6        30.00F
RHINELANDER    CLOUDY    67  64  90 S7        30.02F
EAGLE RIVER    PTCLDY    66  60  80 S5        30.01F
LAND O LAKES   PTCLDY    67  61  83 S5        30.02F
PHILLIPS       CLOUDY    69  64  83 S8        29.98S
TOMAHAWK       PTCLDY    64  61  88 CALM      30.01S
MEDFORD        MOCLDY    67  64  88 S5        30.00R
MERRILL        MOCLDY    68  64  87 S5        30.02R
$$

WIZ029-030-035-036-043>047-240400-
CENTRAL WISCONSIN

CITY           SKY/WX    TMP DP  RH WIND       PRES   REMARKS
WAUSAU         MOCLDY    68  62  81 S7        30.00S
MOSINEE        CLEAR     68  63  83 SE8       30.02F
MARSHFIELD     MOCLDY    71  62  73 S13G18    29.99S
STEVENS POINT  MOCLDY    68  61  77 S7        30.02F
WAUPACA        CLOUDY    71  63  74 SE7       30.03F
WAUTOMA        MOCLDY    69  62  78 SE5       30.02F
WISC RAPIDS    CLOUDY    71  63  75 S8        30.01F
CAMP DOUGLAS   NOT AVBL
$$

WIZ011>013-019>022-031-037>040-048>050-240400-
NORTHEAST WISCONSIN

CITY           SKY/WX    TMP DP  RH WIND       PRES   REMARKS
ANTIGO         CLOUDY    66  63  90 SE7       30.04F
SHAWANO        CLOUDY    71  62  72 S5        30.03F
OCONTO         NOT AVBL
STURGEON BAY   CLEAR     69  63  81 S14       30.05F
GREEN BAY      CLEAR     66  64  93 S6        30.04F
MANITOWOC      NOT AVBL
APPLETON       PTCLDY    72  57  60 S9        30.04S
CLINTONVILLE   CLOUDY    68  61  77 S7        30.03S
OSHKOSH        PTCLDY    67  61  81 S6        30.04F
$$

WIZ032>034-041-042-053>061-240400-
SOUTHWEST WISCONSIN

CITY           SKY/WX    TMP DP  RH WIND       PRES   REMARKS
LA CROSSE      LGT RAIN  73  73 100 S15       29.89F
SPARTA         CLOUDY    74  65  74 SE13G21   29.95F
VIROQUA        CLOUDY    66  64  93 S7G16     29.97F
BOSCOBEL       CLOUDY    76  67  73 S9        29.96F
PRAIRIE DU CHI CLOUDY    74  65  73 CALM      29.97R
PLATTEVILLE    CLOUDY    73  69  87 S15G23    30.01F
$$

WIZ056-057-062-063-064-067-068-240400-
SOUTH CENTRAL WISCONSIN

CITY           SKY/WX    TMP DP  RH WIND       PRES   REMARKS
REEDSBURG      NOT AVBL
BARABOO/DELLS  CLOUDY    72  62  70 S13       30.02F
LONE ROCK      NOT AVBL
MINERAL POINT  CLOUDY    73  68  83 S10       30.02F
MADISON        CLOUDY    73  63  70 S15       30.03F
MIDDLETON      CLOUDY    74  64  71 SE12G17   30.04F
WATERTOWN      CLOUDY    70  64  80 SE6       30.06S
MONROE         CLOUDY    72  64  78 S10       30.05S
JANESVILLE     NOT AVBL
$$

WIZ051-052-058>065-066-070>072-240400-
SOUTHEAST WISCONSIN

CITY           SKY/WX    TMP DP  RH WIND       PRES   REMARKS
MILWAUKEE      PTCLDY    73  60  63 S9        30.08F
WAUKESHA       PTCLDY    70  59  68 S7        30.09F
MILWAUKEE/TIMM PTCLDY    72  55  56 S8        30.08F
RACINE         PTCLDY    73  62  68 S8        30.10F
BURLINGTON     CLOUDY    70  60  71 S6        30.09S
KENOSHA        PTCLDY    72  61  68 S8        30.09S
FOND DU LAC    PTCLDY    67  61  81 S9        30.06S
SHEBOYGAN      CLEAR     67  62  84 S6        30.07F
WEST BEND      CLEAR     68  59  73 S3        30.08S
JUNEAU         CLOUDY    69  62  78 SE10      30.08R
$$

LSZ147-162-240400-
LAKE SUPERIOR

STATION/POSITION TIME  TEMP    WIND        PRES    WAVE
                       AIR SEA DIR/SP/G            HT/PER
                 (UTC) (F)     (DEG/KT/KT) (MB)    (FT/S)
W MID LAKE BUOY  0150   72 67  190/ 12/ 14 1011.5F   1/ 3
DEVILS ISLAND    0200   76     190/  9/ 12 1011.8R
PORT WING        0240   75     160/  8/ 14 1011.5S
SAXON HARBOR     0200   75     190/  4/  8 1012.9
$$

LMZ867-665-643>646-240400-
LAKE MICHIGAN

STATION/POSITION TIME  TEMP    WIND        PRES    WAVE
                       AIR SEA DIR/SP/G            HT/PER
                 (UTC) (F)     (DEG/KT/KT) (MB)    (FT/S)
CHAMBERS ISLAND  0200   72     160/  6/ 14 1017.6R
S GREEN BAY BUOY 0230   72 73  170/ 16/ 17 1016.6F
N MID LAKE BUOY  0150   72 71  190/ 19/ 23 1017.5S   6/ 7
NORTHPORT PIER   0200   70     160/  6/ 11 1017.9S
SISTER BAY       0107   72     190/ 17/ 19   N/A
KEWAUNEE LAKESHO 0200   66     180/ 10/ 12 1018.0R
SHEBOYGAN LAKESH 0200   67     180/ 16/ 17 1018.0R
PORT WASHINGTON  0240   63     190/  4/  8 1019.3S
ATWATER BUOY     0200   65 54  160/ 10/ 12   N/A
MILWAUKEE LAKESH 0210   65     160/  8/  9   N/A
S MID LAKE BUOY  0150   76 75  170/ 16/ 19 1019.2F   3/ 5
KENOSHA   LAKESH 0200   72     180/ 13/ 16 1018.6F
$$

TC  - TEMPERATURE IN CELSIUS
VSB - VISIBILITY IN STATUTE MILES
WCI - WIND CHILL INDEX
HX  - HEAT INDEX





USA.gov is the U.S. government's official web portal to all federal, state and local government web resources and services.